Location: Eferding
(48.3167°N, 14.0167°E)
Time: 21:48:29
(UTC+00:00)

Cosmos 2221 - Pass Details

Date: 12 November 2019
Orbit: 594 x 615 km, 82.5° (Epoch: 11 December)

Event Time Altitude Azimuth Distance (km) Brightness Sun altitude
Rises 16:07:03 0° 167° (SSE) 2,835 6.0 -6.6°
Reaches altitude 10° 16:09:21 10° 160° (SSE) 1,941 5.1 -6.9°
Maximum altitude 16:13:19 38° 92° (E) 923 3.0 -7.6°
Drops below altitude 10° 16:17:22 10° 24° (NNE) 1,969 4.8 -8.2°
Sets 16:19:42 0° 17° (NNE) 2,882 5.7 -8.6°
